Regional Weather Roundup
Issued by NWS

Home | Current Version | Previous Version | Graphics & Text | Print | Product List | Glossary On
Versions: 1 2 3 4 5 6 7 8 9 10 11 12 13 14 15 16 17 18 19 20 21 22 23 24 25 26 27 28 29 30 31 32 33 34 35 36 37 38 39 40 41 42 43 44 45 46 47 48 49 50
000
ASUS43 KFSD 011502
RWRSD

WEATHER ROUNDUP FOR SOUTH DAKOTA
NATIONAL WEATHER SERVICE SIOUX FALLS SD
1000 AM CDT WED APR 01 2015

NOTE: "FAIR" INDICATES FEW OR NO CLOUDS BELOW 12,000 FEET WITH NO
SIGNIFICANT WEATHER AND/OR OBSTRUCTIONS TO VISIBILITY.


SDZ001>005-009-010-012>017-011600-
NORTHWEST AND NORTH CENTRAL SOUTH DAKOTA

CITY           SKY/WX    TMP DP  RH WIND       PRES   REMARKS
BUFFALO          N/A     52  31  44 NW39G46   29.60R
FAITH            N/A     56  36  47 NW30G40   29.57R
MOBRIDGE       PTSUNNY   57  37  47 NW20      29.45R
$$

SDZ012>016-024>037-041>051-057-063-072>074-011600-
SOUTHWEST AND SOUTH CENTRAL SOUTH DAKOTA

CITY           SKY/WX    TMP DP  RH WIND       PRES   REMARKS
RAPID CTY ARPT MOSUNNY   56  35  45 NW32G44   29.64R
PIERRE         PTSUNNY   61  33  35 NW26      29.48R
CUSTER         MOSUNNY   52  28  39 N5        29.68R
ELLSWORTH AFB  CLOUDY    53  36  51 NW29G38   29.64R
PHILIP         PTSUNNY   59  37  44 NW26G37   29.57R
PINE RIDGE     CLOUDY    56  34  43 N14G23    29.65R
SPEARFISH      PTSUNNY   48  36  61 NW17G28   29.74R
WINNER         FAIR      69  40  34 SW15G28   29.52R
$$

SDZ004>011-016>023-039-040-011600-
NORTHEAST SOUTH DAKOTA

CITY           SKY/WX    TMP DP  RH WIND       PRES   REMARKS
ABERDEEN       CLOUDY    60  35  39 S18G25    29.42S
WATERTOWN      CLOUDY    60  38  43 S25G36    29.48F
BROOKINGS      CLOUDY    61  37  41 S29G40    29.56F
SISSETON         N/A     63  37  38 SW32G45   29.37F
$$

SDZ017-020-022-023-036>040-048>070-011600-
SOUTHEAST SOUTH DAKOTA

CITY           SKY/WX    TMP DP  RH WIND       PRES   REMARKS
SIOUX FALLS    PTSUNNY   65  35  33 S28G36    29.62F
HURON          CLOUDY    61  36  39 S20G30    29.46F
MITCHELL       CLOUDY    65  39  38 S20G29    29.52F
YANKTON        MOSUNNY   66  41  39 S22G30    29.60F
$$

ABBREVIATIONS USED IN REMARKS
   TC - TEMPERATURE IN CELSIUS
  WCI - WIND CHILL INDEX
   HX - HEAT INDEX
  VSB - VISIBILITY




USA.gov is the U.S. government's official web portal to all federal, state and local government web resources and services.